Stations météo

réclame
Mon MeteoGroup
Castlederg, Grande-Bretagne (3904): Température de l'air & dewpoint: 11.12.2018 05:00:00 - 17.12.2018 05:00:00 (GMT)Castlederg, Grande-Bretagne (3904): Température de l'air -20cm: 11.12.2018 05:00:00 - 17.12.2018 05:00:00 (GMT)Castlederg, Grande-Bretagne (3904): Vitesse du vent & gusts: 11.12.2018 05:00:00 - 17.12.2018 05:00:00 (GMT)Castlederg, Grande-Bretagne (3904): Direction du vent: 11.12.2018 05:00:00 - 17.12.2018 05:00:00 (GMT)Castlederg, Grande-Bretagne (3904): reduced air pressure: 11.12.2018 05:00:00 - 17.12.2018 05:00:00 (GMT)Castlederg, Grande-Bretagne (3904): visibility: 11.12.2018 05:00:00 - 17.12.2018 05:00:00 (GMT)Castlederg, Grande-Bretagne (3904): Quantités de précipitations: 11.12.2018 05:00:00 - 17.12.2018 05:00:00 (GMT)
Date & Time tt [°C] td [°C] tt -20cm [°C] ff [km/h] ff [knt] fx [km/h] fx [knt] dd ppp [hPa] vv [km] rr [mm]
17.12.2018 05:00:00 1,2 0,8 - 9 5 - - ENE 1006,5 23 0,0
17.12.2018 04:00:00 0,6 0,1 - 8 4 - - ENE 1006,3 25 0,0
17.12.2018 03:00:00 1,2 0,9 - 9 5 - - ENE 1005,9 30 0,0
17.12.2018 02:00:00 0,0 -0,3 - 5 3 - - E 1005,3 27 0,0
17.12.2018 01:00:00 0,7 0,4 - 4 2 - - NNE 1004,9 22 0,0
17.12.2018 00:00:00 0,1 -0,2 - 2 1 - - NW 1004,3 17 0,0
16.12.2018 23:00:00 -0,1 -0,7 - 2 1 - - S 1003,4 15 0,0
16.12.2018 22:00:00 1,2 0,5 - 2 1 - - NNW 1002,8 14 0,0
16.12.2018 21:00:00 2,5 1,8 - 9 5 - - ENE 1002,0 18 0,0
16.12.2018 20:00:00 2,8 1,7 - 5 3 - - NE 1001,2 25 0,0
16.12.2018 19:00:00 5,0 3,7 - 13 7 - - SSW 1000,4 50 0,0
16.12.2018 18:00:00 4,1 3,0 - 2 1 - - W 999,6 40 0,0
16.12.2018 17:00:00 4,3 3,1 - 11 6 - - SSE 998,8 40 0,0
16.12.2018 16:00:00 4,4 3,0 - 4 2 - - SSE 998,3 45 0,0
16.12.2018 15:00:00 5,7 3,7 - 11 6 - - S 997,6 45 0,0
16.12.2018 14:00:00 6,9 4,2 - 15 8 - - SSE 997,2 50 0,0
16.12.2018 13:00:00 6,9 4,6 - 9 5 - - S 997,2 50 0,0
16.12.2018 12:00:00 4,9 3,3 - 9 5 - - S 997,3 50 0,0
16.12.2018 11:00:00 4,4 3,2 - 15 8 - - SSE 997,5 45 0,0
16.12.2018 10:00:00 3,7 3,0 - 11 6 - - S 997,0 40 0,0
16.12.2018 09:00:00 2,0 1,2 6,7 2 1 - - E 996,8 35 0,0
16.12.2018 08:00:00 2,9 1,8 - 11 6 - - S 996,2 40 0,0
16.12.2018 07:00:00 3,3 1,9 - 11 6 - - SSE 995,6 50 0,0
16.12.2018 06:00:00 4,1 2,7 - 9 5 - - WSW 995,3 40 0,0
16.12.2018 05:00:00 4,0 2,7 - 18 10 - - SW 995,0 40 0,0
16.12.2018 04:00:00 4,9 3,5 - 21 11 - - WSW 994,7 35 0,2
16.12.2018 03:00:00 4,6 3,1 - 13 7 - - SW 994,2 45 0,0
16.12.2018 02:00:00 5,1 3,7 - 16 9 - - WSW 993,7 40 1,4
16.12.2018 01:00:00 5,9 3,4 - 21 11 - - WSW 992,7 40 0,0
16.12.2018 00:00:00 6,9 3,4 - 22 12 - - W 991,5 40 0,0
15.12.2018 23:00:00 6,8 3,7 - 18 10 48 26 W 990,1 35 0,0
15.12.2018 22:00:00 7,2 4,2 - 21 11 52 28 W 988,7 30 0,0
15.12.2018 21:00:00 6,8 3,2 - 29 16 67 36 W 987,0 30 0,6
15.12.2018 20:00:00 6,9 4,2 - 31 17 55 30 W 984,7 24 0,0
15.12.2018 19:00:00 6,8 4,9 - 26 14 50 27 W 983,4 40 0,0
15.12.2018 18:00:00 9,0 8,4 - 4 2 - - SSW 981,2 29 3,2
15.12.2018 17:00:00 9,0 8,4 - 18 10 - - ESE 981,1 6 3,4
15.12.2018 16:00:00 8,6 7,9 - 28 15 52 28 ESE 982,0 4,8 2,4
15.12.2018 15:00:00 8,4 7,7 - 26 14 54 29 ESE 983,7 4,4 0,6
15.12.2018 14:00:00 8,3 7,5 - 35 19 52 28 ESE 984,8 6 0,4
15.12.2018 13:00:00 7,7 7,0 - 34 18 57 31 ESE 987,1 6 1,6
15.12.2018 12:00:00 7,5 6,7 - 34 18 61 33 ESE 989,1 7 2,8
15.12.2018 11:00:00 7,2 6,4 - 37 20 61 33 ESE 991,3 11 2,4
15.12.2018 10:00:00 6,7 5,6 - 29 16 57 31 ESE 993,6 10 0,6
15.12.2018 09:00:00 6,3 5,4 7,0 34 18 57 31 ESE 995,7 24 2,2
15.12.2018 08:00:00 6,3 5,4 - 34 18 57 31 ESE 997,6 5 0,6
15.12.2018 07:00:00 6,2 5,1 - 28 15 52 28 SE 1000,0 5 0,2
15.12.2018 06:00:00 6,4 4,9 - 34 18 54 29 SE 1000,9 8 0,0
15.12.2018 05:00:00 6,4 5,0 - 34 18 52 28 SE 1000,9 26 0,0
15.12.2018 04:00:00 6,5 5,3 - 26 14 - - SE 1003,2 14 0,0
15.12.2018 03:00:00 7,0 5,3 - 24 13 - - SE 1004,8 30 0,0
15.12.2018 02:00:00 6,8 5,4 - 24 13 - - SE 1005,2 30 0,0
15.12.2018 01:00:00 6,4 5,6 - 24 13 50 27 SE 1005,6 6 0,8
15.12.2018 00:00:00 6,9 3,4 - 22 12 48 26 W 991,5 40 0,0
14.12.2018 23:00:00 6,7 5,7 - 29 16 48 26 SSE 1007,1 6 0,0
14.12.2018 22:00:00 6,7 5,8 - 35 19 57 31 SE 1007,8 7 0,0
14.12.2018 21:00:00 7,0 6,0 - 29 16 50 27 SE 1008,1 12 0,2
14.12.2018 20:00:00 6,7 5,8 - 26 14 - - SE 1008,8 9 0,2
14.12.2018 19:00:00 6,5 5,5 - 24 13 - - SE 1009,5 8 0,0
14.12.2018 18:00:00 6,5 4,9 - 29 16 48 26 SE 1009,9 26 0,0
14.12.2018 17:00:00 6,1 4,5 - 22 12 - - SE 1010,0 24 0,0
14.12.2018 16:00:00 5,7 4,5 - 22 12 46 25 ESE 1011,2 16 0,2
14.12.2018 15:00:00 5,8 3,9 - 24 13 46 25 SE 1011,6 20 0,2
14.12.2018 14:00:00 6,3 3,3 - 28 15 55 30 SE 1011,9 27 0,0
14.12.2018 13:00:00 6,1 2,9 - 22 12 48 26 SE 1012,7 30 0,0
14.12.2018 12:00:00 6,1 2,6 - 29 16 48 26 SE 1012,8 30 0,0
14.12.2018 11:00:00 5,9 2,9 - 28 15 48 26 SE 1013,3 29 0,0
14.12.2018 10:00:00 5,5 2,9 - 28 15 48 26 SE 1013,7 27 0,0
14.12.2018 09:00:00 5,3 2,6 6,9 21 11 - - SE 1013,9 26 0,0
14.12.2018 08:00:00 5,2 3,0 - 16 9 - - SE 1014,2 24 0,0
14.12.2018 07:00:00 5,2 3,1 - 16 9 - - ESE 1014,2 27 0,0
14.12.2018 06:00:00 5,0 3,2 - 21 11 - - SE 1014,3 23 0,0
14.12.2018 05:00:00 4,9 3,3 - 9 5 - - SE 1014,6 23 0,0
14.12.2018 04:00:00 4,8 3,5 - 22 12 - - SE 1014,7 21 0,0
14.12.2018 03:00:00 4,8 3,8 - 18 10 - - SE 1015,8 11 0,0
14.12.2018 02:00:00 5,1 3,8 - 21 11 - - SE 1015,7 6 0,0
14.12.2018 01:00:00 5,0 3,9 - 16 9 - - SE 1015,6 24 0,0
14.12.2018 00:00:00 5,1 4,1 - 22 12 48 26 SE 1015,3 11 0,0
13.12.2018 23:00:00 5,1 4,2 - 24 13 - - SE 1014,8 15 0,2
13.12.2018 22:00:00 5,1 4,1 - 18 10 - - SE 1015,0 8 0,0
13.12.2018 21:00:00 5,2 4,1 - 21 11 - - SE 1014,6 24 0,0
13.12.2018 20:00:00 5,1 4,0 - 22 12 - - SE 1014,1 14 0,6
13.12.2018 19:00:00 5,2 3,9 - 28 15 48 26 SE 1013,3 5 0,4
13.12.2018 18:00:00 5,3 3,9 - 31 17 - - SE 1012,2 8 0,0
13.12.2018 17:00:00 5,2 3,9 - 26 14 48 26 SE 1011,9 15 1,0
13.12.2018 16:00:00 5,7 3,4 - 34 18 48 26 SE 1011,3 22 0,0
13.12.2018 15:00:00 6,1 3,4 - 26 14 - - SE 1010,6 18 0,0
13.12.2018 14:00:00 6,3 3,1 - 28 15 48 26 SE 1010,2 26 0,0
13.12.2018 13:00:00 6,4 3,1 - 34 18 54 29 SE 1009,0 30 0,0
13.12.2018 12:00:00 6,3 3,1 - 29 16 46 25 SE 1009,0 30 0,0
13.12.2018 11:00:00 5,8 2,9 - 24 13 48 26 SE 1008,9 22 0,0
13.12.2018 10:00:00 5,6 2,7 - 29 16 50 27 ESE 1008,3 27 0,2
13.12.2018 09:00:00 5,8 2,6 7,2 28 15 - - ESE 1008,1 30 0,0
13.12.2018 08:00:00 5,3 3,4 - 26 14 46 25 ESE 1007,3 25 0,2
13.12.2018 07:00:00 5,6 3,8 - 29 16 48 26 ESE 1006,8 11 0,4
13.12.2018 06:00:00 6,1 4,2 - 24 13 46 25 ESE 1006,4 19 0,2
13.12.2018 05:00:00 6,4 4,6 - 24 13 48 26 ESE 1005,9 18 0,0
13.12.2018 04:00:00 6,5 5,0 - 26 14 55 30 SE 1005,7 21 0,0
13.12.2018 03:00:00 6,7 5,1 - 34 18 54 29 ESE 1005,4 19 0,6
13.12.2018 02:00:00 6,9 5,5 - 28 15 54 29 SE 1005,4 11 1,0
13.12.2018 01:00:00 7,0 5,7 - 28 15 54 29 ESE 1005,4 10 1,2
13.12.2018 00:00:00 7,5 5,7 - 31 17 55 30 SE 1005,5 12 0,2
12.12.2018 23:00:00 7,7 6,4 - 28 15 50 27 SE 1005,7 26 0,2
12.12.2018 22:00:00 8,0 6,6 - 29 16 48 26 SE 1006,0 5 0,0
12.12.2018 21:00:00 8,4 6,7 - 26 14 - - SE 1006,4 23 0,6
12.12.2018 20:00:00 8,0 7,0 - 18 10 - - SE 1007,0 6 0,2
12.12.2018 19:00:00 8,0 5,8 - 16 9 - - SE 1007,4 50 0,0
12.12.2018 18:00:00 8,1 5,8 - 22 12 - - SE 1007,8 45 0,0
12.12.2018 17:00:00 8,3 6,4 - 16 9 - - SE 1008,5 35 0,0
12.12.2018 16:00:00 8,3 7,1 - 13 7 - - SE 1009,0 29 0,0
12.12.2018 15:00:00 8,2 6,8 - 9 5 - - ESE 1009,4 45 0,0
12.12.2018 14:00:00 8,1 6,3 - 18 10 - - SE 1010,1 45 0,0
12.12.2018 13:00:00 7,6 6,4 - 13 7 - - SE 1011,4 30 0,0
12.12.2018 12:00:00 7,6 6,7 - 8 4 - - SSE 1012,4 35 0,0
12.12.2018 11:00:00 7,1 6,6 - 9 5 - - SE 1013,1 27 0,0
12.12.2018 10:00:00 7,0 6,8 - 8 4 - - SSE 1013,7 20 0,0
12.12.2018 09:00:00 5,1 4,8 7,0 4 2 - - ESE 1013,6 7 0,0
12.12.2018 08:00:00 5,2 4,9 - 4 2 - - ENE 1013,5 4,9 0,0
12.12.2018 07:00:00 5,7 5,4 - 4 2 - - NW 1014,2 29 0,0
12.12.2018 06:00:00 5,2 4,9 - 5 3 - - W 1014,3 15 0,0
12.12.2018 05:00:00 5,2 4,5 - 4 2 - - ENE 1013,9 26 0,0
12.12.2018 04:00:00 6,3 5,4 - 2 1 - - WSW 1014,4 18 0,0
12.12.2018 03:00:00 7,8 6,9 - 9 5 - - WSW 1014,2 45 0,0
12.12.2018 02:00:00 8,4 7,3 - 11 6 - - WSW 1013,7 50 0,6
12.12.2018 01:00:00 9,1 8,5 - 13 7 - - SSE 1013,2 21 0,2
12.12.2018 00:00:00 9,1 8,2 - 15 8 - - SSE 1013,1 24 0,4
11.12.2018 23:00:00 9,0 7,9 - 15 8 - - SSE 1012,9 16 0,6
11.12.2018 22:00:00 8,8 7,7 - 16 9 - - SE 1012,3 17 0,4
11.12.2018 21:00:00 8,8 7,9 - 18 10 - - ESE 1012,1 14 0,8
11.12.2018 20:00:00 9,2 7,9 - 18 10 - - SE 1012,2 11 0,8
11.12.2018 19:00:00 9,4 8,0 - 18 10 - - ESE 1012,1 22 0,0
11.12.2018 18:00:00 9,4 8,0 - 16 9 - - SE 1012,6 29 0,0
11.12.2018 17:00:00 9,3 8,1 - 16 9 - - SE 1012,9 11 0,0
11.12.2018 16:00:00 9,9 8,0 - 18 10 - - SE 1013,4 30 0,0
11.12.2018 15:00:00 10,0 8,0 - 18 10 - - SSE 1014,0 35 -
11.12.2018 14:00:00 9,8 8,2 - 28 15 - - SE 1014,0 35 0,0
11.12.2018 13:00:00 10,0 8,3 - 24 13 - - SSE 1015,0 35 0,0
11.12.2018 12:00:00 9,9 8,4 - 21 11 - - SE 1015,5 45 0,0
11.12.2018 11:00:00 9,6 8,3 - 16 9 - - SE 1016,3 35 0,0
11.12.2018 10:00:00 9,1 8,0 - 11 6 - - ESE 1016,7 28 0,0
11.12.2018 09:00:00 9,1 8,0 6,9 13 7 - - E 1016,5 30 0,0
11.12.2018 08:00:00 8,8 7,7 - 24 13 - - SSE 1016,7 23 0,0
11.12.2018 07:00:00 8,9 7,8 - 22 12 - - SE 1017,0 21 0,0
11.12.2018 06:00:00 8,8 7,9 - 21 11 - - SE 1017,3 14 0,0
11.12.2018 05:00:00 8,9 8,1 - 8 4 - - E 1018,1 14 0,0

tt = Température de l'air
td = dewpoint
tt -20cm = Température de l'air -20cm
ff = Vitesse du vent
fx = gusts
dd = Direction du vent
ppp = reduced air pressure
vv = visibility
rr = Quantités de précipitations

stations d'obs. à proximité